,,PA_Meas_PMT16A,,PR_Meas_QMR101_102,,RH_Meas_QMH101,,SR_Meas_QMS101,,TA_Meas_QMH101,,GenWind,,GenWind,
time,status,PA,status,PR,status,RH,status,SR,status,TA,status,DirAvg,status,SpdAvg,
2009-10-13, 07:00:04,VALID,919.662,VALID,0,VALID,95.8873,VALID,78.1097,VALID,18.824,VALID,124,VALID,0,
2009-10-13, 07:01:04,VALID,919.666,VALID,0,VALID,96.1313,VALID,71.3409,VALID,18.8824,VALID,124,VALID,0.235938,
2009-10-13, 07:02:04,VALID,919.67,VALID,0,VALID,96.238,VALID,65.8614,VALID,18.9409,VALID,124,VALID,0.274219,
2009-10-13, 07:03:04,VALID,919.693,VALID,0,VALID,96.1236,VALID,73.06,VALID,18.9799,VALID,124,VALID,0.283203,
2009-10-13, 07:04:04,VALID,919.707,VALID,0,VALID,95.6281,VALID,100.243,VALID,18.92,VALID,124,VALID,0.25,
2009-10-13, 07:05:04,VALID,919.73,VALID,0,VALID,95.6357,VALID,146.765,VALID,18.9604,VALID,124,VALID,0.3625,
2009-10-13, 07:06:04,VALID,919.713,VALID,0,VALID,95.6815,VALID,181.683,VALID,19.0203,VALID,124,VALID,0.4,
2009-10-13, 07:07:04,VALID,919.739,VALID,0,VALID,96.1008,VALID,190.708,VALID,19.0969,VALID,124,VALID,0.515234,
2009-10-13, 07:08:04,VALID,919.742,VALID,0,VALID,96.3066,VALID,154.285,VALID,19.1929,VALID,124,VALID,0.487109,
2009-10-13, 07:09:04,VALID,919.739,VALID,0,VALID,96.1313,VALID,93.2589,VALID,19.2904,VALID,124,VALID,0.403516,
2009-10-13, 07:10:04,VALID,919.732,VALID,0,VALID,95.7806,VALID,69.0847,VALID,19.3879,VALID,124,VALID,0.400391,
2009-10-13, 07:11:04,VALID,919.754,VALID,0,VALID,95.468,VALID,63.6052,VALID,19.4268,VALID,124,VALID,0.388672,
2009-10-13, 07:12:04,VALID,919.715,VALID,0,VALID,95.2088,VALID,58.7703,VALID,19.5048,VALID,124,VALID,0.463672,
2009-10-13, 07:13:04,VALID,919.721,VALID,0,VALID,94.942,VALID,57.0513,VALID,19.5633,VALID,124,VALID,0.532812,
2009-10-13, 07:14:04,VALID,919.72,VALID,0,VALID,94.7667,VALID,57.1587,VALID,19.6038,VALID,124,VALID,0.562891,
2009-10-13, 07:15:04,VALID,919.735,VALID,0,VALID,94.66,VALID,58.448,VALID,19.6413,VALID,124,VALID,0.446484,
2009-10-13, 07:16:04,VALID,919.773,VALID,0,VALID,94.6142,VALID,61.9935,VALID,19.6803,VALID,124,VALID,0.260156,
2009-10-13, 07:17:04,VALID,919.789,VALID,0,VALID,94.3855,VALID,78.7544,VALID,19.6998,VALID,124,VALID,0.0515625,
2009-10-13, 07:18:04,VALID,919.802,VALID,0,VALID,94.3779,VALID,145.046,VALID,19.7388,VALID,124,VALID,0.0277344,
2009-10-13, 07:19:04,VALID,919.834,VALID,0,VALID,94.4389,VALID,231.106,VALID,19.8168,VALID,124,VALID,0,
2009-10-13, 07:20:04,VALID,919.877,VALID,0,VALID,93.6918,VALID,264.198,VALID,19.8753,VALID,124,VALID,0.0347656,
2009-10-13, 07:21:04,VALID,919.882,VALID,0,VALID,93.4859,VALID,242.924,VALID,20.0313,VALID,124,VALID,0.383594,
2009-10-13, 07:22:04,VALID,919.87,VALID,0,VALID,93.4326,VALID,231.858,VALID,20.1693,VALID,124,VALID,0.157813,
2009-10-13, 07:23:04,VALID,919.909,VALID,0,VALID,93.2572,VALID,282.678,VALID,20.2684,VALID,124,VALID,0.301953,
2009-10-13, 07:24:04,VALID,919.911,VALID,0,VALID,92.8608,VALID,288.694,VALID,20.3253,VALID,124,VALID,0.235156,
2009-10-13, 07:25:04,VALID,919.931,VALID,0,VALID,92.6169,VALID,291.488,VALID,20.4033,VALID,124,VALID,0.0722656,
2009-10-13, 07:26:04,VALID,919.914,VALID,0,VALID,93.1581,VALID,294.066,VALID,20.5399,VALID,124,VALID,0,
2009-10-13, 07:27:04,VALID,919.911,VALID,0,VALID,93.4555,VALID,297.505,VALID,20.7739,VALID,124,VALID,0,
2009-10-13, 07:28:04,VALID,919.944,VALID,0,VALID,91.2904,VALID,299.546,VALID,21.008,VALID,124,VALID,0,
2009-10-13, 07:29:04,VALID,919.953,VALID,0,VALID,89.2854,VALID,302.232,VALID,21.2421,VALID,124,VALID,0,
2009-10-13, 07:30:04,VALID,919.965,VALID,0,VALID,88.7671,VALID,307.282,VALID,21.4762,VALID,124,VALID,0,
2009-10-13, 07:31:04,VALID,919.985,VALID,0,VALID,87.4787,VALID,313.513,VALID,21.7493,VALID,124,VALID,0.385547,
2009-10-13, 07:32:04,VALID,919.997,VALID,0,VALID,86.7087,VALID,319.745,VALID,21.9038,VALID,124,VALID,0.646094,
2009-10-13, 07:33:04,VALID,920.021,VALID,0,VALID,85.0926,VALID,326.191,VALID,21.9835,VALID,125,VALID,0.992578,
2009-10-13, 07:34:04,VALID,920.052,VALID,0,VALID,84.8334,VALID,330.704,VALID,21.9038,VALID,125,VALID,1.1625,
2009-10-13, 07:35:04,VALID,920.073,VALID,0,VALID,85.9845,VALID,334.679,VALID,21.8452,VALID,126,VALID,0.741406,
2009-10-13, 07:36:04,VALID,920.096,VALID,0,VALID,86.2208,VALID,334.249,VALID,21.8062,VALID,125,VALID,0.883984,
2009-10-13, 07:37:04,VALID,920.086,VALID,0,VALID,86.8155,VALID,335.968,VALID,21.8079,VALID,126,VALID,0.530078,
2009-10-13, 07:38:04,VALID,920.16,VALID,0,VALID,86.4877,VALID,341.126,VALID,21.8664,VALID,12,VALID,1.1832,
2009-10-13, 07:39:04,VALID,920.162,VALID,0,VALID,85.1154,VALID,345.961,VALID,21.8647,VALID,12,VALID,1.22539,
2009-10-13, 07:40:04,VALID,920.207,VALID,0,VALID,86.6325,VALID,348.324,VALID,21.8452,VALID,358,VALID,1.04531,
2009-10-13, 07:41:04,VALID,920.197,VALID,0,VALID,85.954,VALID,355.093,VALID,21.8842,VALID,357,VALID,0.875781,
2009-10-13, 07:42:04,VALID,920.243,VALID,0,VALID,87.0747,VALID,359.498,VALID,21.9623,VALID,357,VALID,0.563672,
2009-10-13, 07:43:04,VALID,920.254,VALID,0,VALID,87.0289,VALID,356.275,VALID,22.0598,VALID,357,VALID,0.755078,
2009-10-13, 07:44:04,VALID,920.314,VALID,0,VALID,86.9908,VALID,363.366,VALID,22.1964,VALID,357,VALID,1.10508,
2009-10-13, 07:45:04,VALID,920.31,VALID,0,VALID,83.9872,VALID,366.804,VALID,22.333,VALID,357,VALID,1.03711,
2009-10-13, 07:46:04,VALID,920.297,VALID,0,VALID,84.5361,VALID,372.713,VALID,22.3508,VALID,357,VALID,0.501172,
2009-10-13, 07:47:04,VALID,920.323,VALID,0,VALID,84.3226,VALID,376.259,VALID,22.3703,VALID,357,VALID,0.611719,
2009-10-13, 07:48:04,VALID,920.324,VALID,0,VALID,83.5831,VALID,385.069,VALID,22.3508,VALID,357,VALID,0.646875,
2009-10-13, 07:49:04,VALID,920.326,VALID,0,VALID,83.7585,VALID,386.466,VALID,22.3508,VALID,357,VALID,0.295312,
2009-10-13, 07:50:04,VALID,920.359,VALID,0,VALID,83.6746,VALID,387.54,VALID,22.4306,VALID,357,VALID,0.789063,
2009-10-13, 07:51:04,VALID,920.334,VALID,0,VALID,83.1257,VALID,390.871,VALID,22.5672,VALID,357,VALID,0.955469,
2009-10-13, 07:52:04,VALID,920.357,VALID,0,VALID,83.6517,VALID,395.921,VALID,22.6825,VALID,357,VALID,0.669141,
2009-10-13, 07:53:04,VALID,920.335,VALID,0,VALID,82.8742,VALID,403.334,VALID,22.7428,VALID,357,VALID,1.0918,
2009-10-13, 07:54:04,VALID,920.315,VALID,0,VALID,80.8311,VALID,411.715,VALID,22.6843,VALID,31,VALID,1.59531,
2009-10-13, 07:55:04,VALID,920.327,VALID,0,VALID,82.8132,VALID,415.475,VALID,22.5086,VALID,31,VALID,0.832031,
2009-10-13, 07:56:04,VALID,920.358,VALID,0,VALID,84.3074,VALID,420.095,VALID,22.4891,VALID,31,VALID,0.642969,
2009-10-13, 07:57:04,VALID,920.355,VALID,0,VALID,83.0342,VALID,425.36,VALID,22.5672,VALID,31,VALID,0.313672,
2009-10-13, 07:58:04,VALID,920.359,VALID,0,VALID,83.0571,VALID,428.153,VALID,22.6062,VALID,31,VALID,1.14648,
2009-10-13, 07:59:04,VALID,920.341,VALID,0,VALID,82.3786,VALID,431.806,VALID,22.624,VALID,31,VALID,0.486328,
2009-10-13, 08:00:04,VALID,920.339,VALID,0,VALID,83.5221,VALID,439.972,VALID,22.7216,VALID,31,VALID,1.16484,
2009-10-13, 08:01:04,VALID,920.368,VALID,0,VALID,83.5984,VALID,444.699,VALID,22.8191,VALID,31,VALID,0.870313,
2009-10-13, 08:02:04,VALID,920.34,VALID,0,VALID,82.6912,VALID,442.98,VALID,22.8582,VALID,31,VALID,0.294922,
2009-10-13, 08:03:04,VALID,920.361,VALID,0,VALID,80.6557,VALID,450.931,VALID,22.8582,VALID,31,VALID,0.53125,
2009-10-13, 08:04:04,VALID,920.34,VALID,0,VALID,81.319,VALID,451.575,VALID,22.7801,VALID,31,VALID,0.487891,
2009-10-13, 08:05:04,VALID,920.339,VALID,0,VALID,82.9123,VALID,451.683,VALID,22.7411,VALID,10,VALID,1.64688,
2009-10-13, 08:06:04,VALID,920.351,VALID,0,VALID,83.2325,VALID,464.038,VALID,22.7606,VALID,39,VALID,0.984375,
2009-10-13, 08:07:04,VALID,920.331,VALID,0,VALID,82.836,VALID,465.328,VALID,22.8777,VALID,39,VALID,0.84375,
2009-10-13, 08:08:04,VALID,920.36,VALID,0,VALID,79.7486,VALID,466.939,VALID,22.8759,VALID,39,VALID,0.740234,
2009-10-13, 08:09:04,VALID,920.356,VALID,0,VALID,82.31,VALID,472.634,VALID,22.663,VALID,39,VALID,1.17305,
2009-10-13, 08:10:04,VALID,920.33,VALID,0,VALID,82.0737,VALID,477.791,VALID,22.5442,VALID,39,VALID,1.54766,
2009-10-13, 08:11:04,VALID,920.345,VALID,0,VALID,83.5526,VALID,482.196,VALID,22.5442,VALID,39,VALID,0.410547,
2009-10-13, 08:12:04,VALID,920.347,VALID,0,VALID,83.202,VALID,489.932,VALID,22.6825,VALID,299,VALID,0.685156,
2009-10-13, 08:13:04,VALID,920.367,VALID,0,VALID,82.2033,VALID,373.788,VALID,22.7198,VALID,28,VALID,1.03203,
2009-10-13, 08:14:04,VALID,920.353,VALID,0,VALID,82.7903,VALID,331.993,VALID,22.7979,VALID,355,VALID,0.738281,
2009-10-13, 08:15:04,VALID,920.37,VALID,0,VALID,82.0127,VALID,500.998,VALID,22.7394,VALID,354,VALID,1.08242,
2009-10-13, 08:16:04,VALID,920.346,VALID,0,VALID,83.9491,VALID,503.362,VALID,22.6825,VALID,354,VALID,1.49375,
2009-10-13, 08:17:04,VALID,920.409,VALID,0,VALID,82.8742,VALID,514.965,VALID,22.7198,VALID,354,VALID,1.5707,
2009-10-13, 08:18:04,VALID,920.377,VALID,0,VALID,83.2553,VALID,534.305,VALID,22.7784,VALID,354,VALID,0.925391,
2009-10-13, 08:19:04,VALID,920.432,VALID,0,VALID,82.4701,VALID,531.834,VALID,22.8174,VALID,353,VALID,0.839844,
2009-10-13, 08:20:04,VALID,920.436,VALID,0,VALID,82.4244,VALID,536.776,VALID,22.915,VALID,331,VALID,0.597266,
2009-10-13, 08:21:04,VALID,920.417,VALID,0,VALID,81.967,VALID,539.892,VALID,22.9753,VALID,331,VALID,0.648047,
2009-10-13, 08:22:04,VALID,920.447,VALID,0,VALID,81.3342,VALID,543.437,VALID,22.9948,VALID,331,VALID,0.65,
2009-10-13, 08:23:04,VALID,920.425,VALID,0,VALID,80.7015,VALID,545.264,VALID,22.9948,VALID,331,VALID,0.752734,
2009-10-13, 08:24:04,VALID,920.431,VALID,0,VALID,83.5984,VALID,548.595,VALID,22.9948,VALID,299,VALID,0.803516,
2009-10-13, 08:25:04,VALID,920.419,VALID,0,VALID,82.7598,VALID,552.677,VALID,23.1314,VALID,299,VALID,0.652734,
2009-10-13, 08:26:04,VALID,920.423,VALID,0,VALID,80.4728,VALID,561.702,VALID,23.268,VALID,299,VALID,0.0703125,
2009-10-13, 08:27:04,VALID,920.445,VALID,0,VALID,80.1831,VALID,567.719,VALID,23.3656,VALID,299,VALID,0.261328,
2009-10-13, 08:28:04,VALID,920.411,VALID,0,VALID,79.3903,VALID,578.141,VALID,23.5608,VALID,299,VALID,0.206641,
2009-10-13, 08:29:04,VALID,920.406,VALID,0,VALID,79.7638,VALID,515.395,VALID,23.6974,VALID,299,VALID,0.753125,
2009-10-13, 08:30:04,VALID,920.397,VALID,0,VALID,80.0611,VALID,282.57,VALID,23.7364,VALID,299,VALID,0.399609,
2009-10-13, 08:31:04,VALID,920.392,VALID,0,VALID,78.4221,VALID,582.976,VALID,23.7542,VALID,299,VALID,0.583203,
2009-10-13, 08:32:04,VALID,920.366,VALID,0,VALID,79.3979,VALID,575.992,VALID,23.6584,VALID,299,VALID,0.546875,
2009-10-13, 08:33:04,VALID,920.358,VALID,0,VALID,77.9266,VALID,546.123,VALID,23.5998,VALID,299,VALID,0.832422,
2009-10-13, 08:34:04,VALID,920.377,VALID,0,VALID,78.9786,VALID,551.495,VALID,23.5022,VALID,299,VALID,0.511719,
2009-10-13, 08:35:04,VALID,920.359,VALID,0,VALID,80.2593,VALID,584.158,VALID,23.4809,VALID,299,VALID,0.414453,
2009-10-13, 08:36:04,VALID,920.357,VALID,0,VALID,78.9557,VALID,595.869,VALID,23.598,VALID,299,VALID,0.682422,
2009-10-13, 08:37:04,VALID,920.369,VALID,0,VALID,78.3382,VALID,590.604,VALID,23.6761,VALID,299,VALID,0.917188,
2009-10-13, 08:38:04,VALID,920.357,VALID,0,VALID,78.9252,VALID,586.736,VALID,23.7542,VALID,329,VALID,1.33633,
2009-10-13, 08:39:04,VALID,920.38,VALID,0,VALID,77.7893,VALID,589.637,VALID,23.8908,VALID,60,VALID,0.689062,
2009-10-13, 08:40:04,VALID,920.361,VALID,0,VALID,75.266,VALID,597.265,VALID,23.9103,VALID,35,VALID,2.26523,
2009-10-13, 08:41:04,VALID,920.373,VALID,0,VALID,75.8073,VALID,599.414,VALID,23.6566,VALID,358,VALID,1.18477,
2009-10-13, 08:42:04,VALID,920.368,VALID,0,VALID,77.6674,VALID,597.05,VALID,23.5199,VALID,40,VALID,1.9957,
2009-10-13, 08:43:04,VALID,920.342,VALID,0,VALID,78.4526,VALID,602.852,VALID,23.3638,VALID,60,VALID,2.29453,
2009-10-13, 08:44:04,VALID,920.356,VALID,0,VALID,79.032,VALID,604.034,VALID,23.3053,VALID,56,VALID,1.60078,
2009-10-13, 08:45:04,VALID,920.335,VALID,0,VALID,78.9405,VALID,608.869,VALID,23.284,VALID,63,VALID,1.45117,
2009-10-13, 08:46:04,VALID,920.377,VALID,0,VALID,77.9571,VALID,614.134,VALID,23.3638,VALID,350,VALID,1.05547,
2009-10-13, 08:47:04,VALID,920.342,VALID,0,VALID,78.4526,VALID,618.216,VALID,23.5199,VALID,342,VALID,0.971484,
2009-10-13, 08:48:04,VALID,920.312,VALID,0,VALID,79.84,VALID,625.307,VALID,23.6761,VALID,339,VALID,1.28437,
2009-10-13, 08:49:04,VALID,920.355,VALID,0,VALID,78.4297,VALID,627.564,VALID,23.7932,VALID,42,VALID,1.34219,
2009-10-13, 08:50:04,VALID,920.366,VALID,0,VALID,77.6597,VALID,629.498,VALID,23.7737,VALID,339,VALID,1.64766,
2009-10-13, 08:51:04,VALID,920.348,VALID,0,VALID,79.8172,VALID,633.903,VALID,23.637,VALID,346,VALID,1.45977,
2009-10-13, 08:52:04,VALID,920.343,VALID,0,VALID,76.2647,VALID,636.266,VALID,23.5199,VALID,16,VALID,1.99883,
2009-10-13, 08:53:04,VALID,920.346,VALID,0,VALID,76.5391,VALID,638.2,VALID,23.323,VALID,29,VALID,1.86953,
2009-10-13, 08:54:04,VALID,920.308,VALID,0,VALID,80.7777,VALID,645.184,VALID,23.2662,VALID,49,VALID,1.41445,
2009-10-13, 08:55:04,VALID,920.303,VALID,0,VALID,78.2315,VALID,650.341,VALID,23.3638,VALID,325,VALID,1.21445,
2009-10-13, 08:56:04,VALID,920.31,VALID,0,VALID,76.501,VALID,655.069,VALID,23.5004,VALID,42,VALID,1.07813,
2009-10-13, 08:57:04,VALID,920.335,VALID,0,VALID,78.6965,VALID,660.333,VALID,23.4986,VALID,290,VALID,0.848437,
2009-10-13, 08:58:04,VALID,920.321,VALID,0,VALID,77.5149,VALID,668.606,VALID,23.6157,VALID,357,VALID,2.46328,
2009-10-13, 08:59:04,VALID,920.323,VALID,0,VALID,77.6674,VALID,678.276,VALID,23.7932,VALID,23,VALID,1.17266,
2009-10-13, 09:00:04,VALID,920.281,VALID,0,VALID,78.2544,VALID,688.698,VALID,23.9493,VALID,28,VALID,1.8668,
2009-10-13, 09:01:04,VALID,920.244,VALID,0,VALID,78.5288,VALID,696.004,VALID,23.9493,VALID,20,VALID,1.91367,
2009-10-13, 09:02:04,VALID,920.246,VALID,0,VALID,80.2822,VALID,690.739,VALID,24.086,VALID,7,VALID,2.21055,
2009-10-13, 09:03:04,VALID,920.235,VALID,0,VALID,75.5023,VALID,629.175,VALID,24.0274,VALID,50,VALID,2.68047,
2009-10-13, 09:04:04,VALID,920.191,VALID,0,VALID,73.3144,VALID,621.869,VALID,23.9707,VALID,30,VALID,1.60547,
2009-10-13, 09:05:04,VALID,920.184,VALID,0,VALID,77.4005,VALID,670.218,VALID,23.8713,VALID,53,VALID,1.29062,
2009-10-13, 09:06:04,VALID,920.173,VALID,0,VALID,74.9687,VALID,722.434,VALID,24.0469,VALID,10,VALID,1.40391,
2009-10-13, 09:07:04,VALID,920.142,VALID,0,VALID,74.4884,VALID,600.489,VALID,24.0842,VALID,358,VALID,0.905078,
2009-10-13, 09:08:04,VALID,920.106,VALID,0,VALID,72.4301,VALID,727.806,VALID,24.0469,VALID,15,VALID,2.30273,
2009-10-13, 09:09:04,VALID,920.128,VALID,0,VALID,73.444,VALID,725.335,VALID,23.8517,VALID,354,VALID,1.57539,
2009-10-13, 09:10:04,VALID,920.1,VALID,0,VALID,72.6359,VALID,727.162,VALID,23.8517,VALID,310,VALID,1.10078,
2009-10-13, 09:11:04,VALID,920.119,VALID,0,VALID,73.8404,VALID,726.625,VALID,23.9493,VALID,329,VALID,1.33125,
2009-10-13, 09:12:04,VALID,920.067,VALID,0,VALID,75.1364,VALID,724.153,VALID,24.0274,VALID,308,VALID,1.32148,
2009-10-13, 09:13:04,VALID,920.072,VALID,0,VALID,76.2647,VALID,726.087,VALID,24.1836,VALID,312,VALID,1.27383,
2009-10-13, 09:14:04,VALID,920.076,VALID,0,VALID,74.6104,VALID,727.806,VALID,24.3593,VALID,14,VALID,1.19258,
2009-10-13, 09:15:04,VALID,920.089,VALID,0,VALID,75.792,VALID,730.17,VALID,24.4959,VALID,33,VALID,1.66875,
2009-10-13, 09:16:04,VALID,920.076,VALID,0,VALID,71.4162,VALID,729.418,VALID,24.6716,VALID,353,VALID,1.4375,
2009-10-13, 09:17:04,VALID,920.084,VALID,0,VALID,73.8404,VALID,729.525,VALID,24.6502,VALID,15,VALID,2.50547,
2009-10-13, 09:18:04,VALID,920.088,VALID,0,VALID,72.9561,VALID,729.955,VALID,24.7107,VALID,296,VALID,0.482031,
2009-10-13, 09:19:04,VALID,920.053,VALID,0,VALID,72.6435,VALID,732.964,VALID,24.5917,VALID,32,VALID,2.59961,
2009-10-13, 09:20:04,VALID,920.106,VALID,0,VALID,71.9955,VALID,734.575,VALID,24.4941,VALID,3,VALID,1.65898,
2009-10-13, 09:21:04,VALID,920.116,VALID,0,VALID,70.4937,VALID,737.906,VALID,24.4569,VALID,360,VALID,0.809375,
2009-10-13, 09:22:04,VALID,920.118,VALID,0,VALID,71.2484,VALID,742.526,VALID,24.3769,VALID,351,VALID,1.23086,
2009-10-13, 09:23:04,VALID,920.124,VALID,0,VALID,71.3094,VALID,745.749,VALID,24.3983,VALID,332,VALID,0.891016,
2009-10-13, 09:24:04,VALID,920.105,VALID,0,VALID,71.9193,VALID,750.369,VALID,24.5564,VALID,332,VALID,0.228906,
2009-10-13, 09:25:04,VALID,920.075,VALID,0,VALID,72.3081,VALID,762.295,VALID,24.7888,VALID,346,VALID,1.0082,
2009-10-13, 09:26:04,VALID,920.062,VALID,0,VALID,70.1888,VALID,768.204,VALID,24.8102,VALID,27,VALID,2.20781,
2009-10-13, 09:27:04,VALID,920.032,VALID,0,VALID,71.0274,VALID,768.204,VALID,24.6912,VALID,52,VALID,1.43906,
2009-10-13, 09:28:04,VALID,920.052,VALID,0,VALID,72.5749,VALID,765.733,VALID,24.7107,VALID,66,VALID,0.568359,
2009-10-13, 09:29:04,VALID,920.047,VALID,0,VALID,69.4951,VALID,767.882,VALID,24.7302,VALID,301,VALID,1.18516,
2009-10-13, 09:30:04,VALID,920.025,VALID,0,VALID,70.9206,VALID,761.435,VALID,24.693,VALID,254,VALID,1.32031,
2009-10-13, 09:31:04,VALID,920.013,VALID,0,VALID,71.2256,VALID,757.245,VALID,24.7888,VALID,296,VALID,0.691797,
2009-10-13, 09:32:04,VALID,920.01,VALID,0,VALID,69.861,VALID,762.51,VALID,25.1207,VALID,12,VALID,1.28789,
2009-10-13, 09:33:04,VALID,920.024,VALID,0,VALID,65.7367,VALID,762.402,VALID,25.4156,VALID,304,VALID,0.664844,
2009-10-13, 09:34:04,VALID,920.022,VALID,0,VALID,64.395,VALID,770.998,VALID,25.355,VALID,316,VALID,1.45898,
2009-10-13, 09:35:04,VALID,920.016,VALID,0,VALID,64.7228,VALID,774.758,VALID,25.1207,VALID,275,VALID,0.991016,
2009-10-13, 09:36:04,VALID,920.018,VALID,0,VALID,65.7672,VALID,776.155,VALID,24.9645,VALID,275,VALID,0.892187,
2009-10-13, 09:37:04,VALID,919.992,VALID,0,VALID,65.3098,VALID,783.568,VALID,24.9059,VALID,274,VALID,0.957422,
2009-10-13, 09:38:04,VALID,919.965,VALID,0,VALID,65.8739,VALID,781.742,VALID,24.7497,VALID,247,VALID,1.09687,
2009-10-13, 09:39:04,VALID,919.98,VALID,0,VALID,65.7291,VALID,790.445,VALID,24.7283,VALID,247,VALID,0.398047,
2009-10-13, 09:40:04,VALID,919.949,VALID,0,VALID,65.2031,VALID,794.312,VALID,24.9431,VALID,247,VALID,0.6375,
2009-10-13, 09:41:04,VALID,919.959,VALID,0,VALID,67.2766,VALID,788.511,VALID,25.2555,VALID,247,VALID,0.514063,
2009-10-13, 09:42:04,VALID,919.961,VALID,0,VALID,66.5753,VALID,798.073,VALID,25.5093,VALID,350,VALID,1.58359,
2009-10-13, 09:43:04,VALID,919.948,VALID,0,VALID,62.6492,VALID,802.8,VALID,25.6441,VALID,11,VALID,1.54336,
2009-10-13, 09:44:04,VALID,919.969,VALID,0,VALID,63.1143,VALID,623.803,VALID,25.648,VALID,22,VALID,1.78984,
2009-10-13, 09:45:04,VALID,919.955,VALID,0,VALID,62.1842,VALID,848.678,VALID,25.5698,VALID,9,VALID,0.182812,
2009-10-13, 09:46:04,VALID,919.949,VALID,0,VALID,65.2564,VALID,823.107,VALID,25.6265,VALID,9,VALID,0.505469,
2009-10-13, 09:47:04,VALID,919.928,VALID,0,VALID,64.3797,VALID,816.66,VALID,25.8413,VALID,9,VALID,0.542188,
2009-10-13, 09:48:04,VALID,919.901,VALID,0,VALID,65.1573,VALID,818.057,VALID,25.9975,VALID,353,VALID,1.00508,
2009-10-13, 09:49:04,VALID,919.898,VALID,0,VALID,61.0102,VALID,823.644,VALID,26.1147,VALID,11,VALID,0.660547,
2009-10-13, 09:50:04,VALID,919.874,VALID,0,VALID,60.7205,VALID,831.272,VALID,26.1538,VALID,67,VALID,1.37578,
2009-10-13, 09:51:04,VALID,919.836,VALID,0,VALID,62.7026,VALID,831.272,VALID,26.0366,VALID,113,VALID,0.546484,
2009-10-13, 09:52:04,VALID,919.847,VALID,0,VALID,62.9313,VALID,831.38,VALID,26.1928,VALID,113,VALID,1.06289,
2009-10-13, 09:53:04,VALID,919.84,VALID,0,VALID,64.4789,VALID,835.677,VALID,26.273,VALID,113,VALID,0.540625,
2009-10-13, 09:54:04,VALID,919.861,VALID,0,VALID,60.5375,VALID,833.314,VALID,26.4117,VALID,113,VALID,0.428516,
2009-10-13, 09:55:04,VALID,919.825,VALID,0,VALID,61.5362,VALID,829.768,VALID,26.6246,VALID,113,VALID,0.9125,
2009-10-13, 09:56:04,VALID,919.82,VALID,0,VALID,62.2757,VALID,835.355,VALID,26.6441,VALID,61,VALID,2.09531,
2009-10-13, 09:57:04,VALID,919.795,VALID,0,VALID,63.1829,VALID,842.876,VALID,26.2925,VALID,23,VALID,1.38437,
2009-10-13, 09:58:04,VALID,919.783,VALID,0,VALID,64.3264,VALID,842.768,VALID,26.2534,VALID,18,VALID,1.34961,
2009-10-13, 09:59:04,VALID,919.773,VALID,0,VALID,64.7838,VALID,831.702,VALID,26.1558,VALID,68,VALID,0.776563,
2009-10-13, 10:00:04,VALID,919.785,VALID,0,VALID,65.4623,VALID,833.099,VALID,26.2534,VALID,68,VALID,0.25625,
2009-10-13, 10:01:04,VALID,919.803,VALID,0,VALID,65.0659,VALID,830.52,VALID,26.3686,VALID,11,VALID,0.606641,
2009-10-13, 10:02:04,VALID,919.785,VALID,0,VALID,64.5322,VALID,828.479,VALID,26.564,VALID,11,VALID,1.48008,
2009-10-13, 10:03:04,VALID,919.785,VALID,0,VALID,62.6111,VALID,826.222,VALID,26.8199,VALID,24,VALID,1.91133,
2009-10-13, 10:04:04,VALID,919.778,VALID,0,VALID,61.925,VALID,823.966,VALID,26.9937,VALID,48,VALID,0.667969,
2009-10-13, 10:05:04,VALID,919.776,VALID,0,VALID,59.7981,VALID,829.661,VALID,27.2281,VALID,6,VALID,1.88984,
2009-10-13, 10:06:04,VALID,919.769,VALID,0,VALID,61.7878,VALID,826.115,VALID,27.1109,VALID,15,VALID,0.703516,
2009-10-13, 10:07:04,VALID,919.756,VALID,0,VALID,59.9734,VALID,832.669,VALID,27.1109,VALID,16,VALID,1.09922,
2009-10-13, 10:08:04,VALID,919.763,VALID,0,VALID,62.6111,VALID,842.661,VALID,26.8785,VALID,26,VALID,0.560156,
2009-10-13, 10:09:04,VALID,919.772,VALID,0,VALID,62.5425,VALID,854.157,VALID,26.7398,VALID,52,VALID,1.26641,
2009-10-13, 10:10:04,VALID,919.753,VALID,0,VALID,64.3493,VALID,865.331,VALID,26.7398,VALID,66,VALID,1.31562,
2009-10-13, 10:11:04,VALID,919.8,VALID,0,VALID,64.4255,VALID,849.43,VALID,26.857,VALID,331,VALID,0.947266,
2009-10-13, 10:12:04,VALID,919.784,VALID,0,VALID,61.4219,VALID,838.793,VALID,27.0132,VALID,333,VALID,0.625781,
2009-10-13, 10:13:04,VALID,919.735,VALID,0,VALID,63.4878,VALID,847.818,VALID,27.0523,VALID,21,VALID,1.6543,
2009-10-13, 10:14:04,VALID,919.758,VALID,0,VALID,61.3304,VALID,863.505,VALID,27.0132,VALID,340,VALID,0.415625,
2009-10-13, 10:15:04,VALID,919.734,VALID,0,VALID,61.6734,VALID,869.091,VALID,27.0132,VALID,10,VALID,1.05391,
2009-10-13, 10:16:04,VALID,919.71,VALID,0,VALID,62.512,VALID,866.191,VALID,26.9567,VALID,44,VALID,1.28203,
2009-10-13, 10:17:04,VALID,919.714,VALID,0,VALID,61.5667,VALID,791.519,VALID,26.9546,VALID,12,VALID,1.4418,
2009-10-13, 10:18:04,VALID,919.663,VALID,0,VALID,61.1703,VALID,875.968,VALID,26.7398,VALID,5,VALID,1.4832,
2009-10-13, 10:19:04,VALID,919.638,VALID,0,VALID,60.6519,VALID,879.943,VALID,26.5444,VALID,21,VALID,1.73633,
2009-10-13, 10:20:04,VALID,919.598,VALID,0,VALID,62.2071,VALID,886.282,VALID,26.4077,VALID,30,VALID,2.45937,
2009-10-13, 10:21:04,VALID,919.563,VALID,0,VALID,64.5246,VALID,892.514,VALID,26.2319,VALID,21,VALID,1.5418,
2009-10-13, 10:22:04,VALID,919.565,VALID,0,VALID,61.8793,VALID,894.77,VALID,26.1928,VALID,351,VALID,1.42266,
2009-10-13, 10:23:04,VALID,919.566,VALID,0,VALID,63.5183,VALID,888.538,VALID,26.271,VALID,350,VALID,0.609375,
2009-10-13, 10:24:04,VALID,919.532,VALID,0,VALID,61.6201,VALID,889.505,VALID,26.4663,VALID,349,VALID,0.739453,
2009-10-13, 10:25:04,VALID,919.523,VALID,0,VALID,62.329,VALID,890.902,VALID,26.5444,VALID,203,VALID,0.747266,
2009-10-13, 10:26:05,VALID,919.517,VALID,0,VALID,61.4676,VALID,887.464,VALID,26.6812,VALID,51,VALID,1.64688,
2009-10-13, 10:27:05,VALID,919.486,VALID,0,VALID,65.5461,VALID,881.447,VALID,26.5835,VALID,60,VALID,0.99375,
2009-10-13, 10:28:05,VALID,919.487,VALID,0,VALID,61.9479,VALID,909.274,VALID,26.6812,VALID,60,VALID,2.11641,
2009-10-13, 10:29:05,VALID,919.489,VALID,0,VALID,63.6936,VALID,914.647,VALID,26.7398,VALID,2,VALID,1.53516,
2009-10-13, 10:30:05,VALID,919.461,VALID,0,VALID,61.4295,VALID,918.407,VALID,26.7593,VALID,38,VALID,2.32891,
2009-10-13, 10:31:05,VALID,919.473,VALID,0,VALID,62.1461,VALID,656.358,VALID,26.7202,VALID,15,VALID,2.33477,
2009-10-13, 10:32:05,VALID,919.496,VALID,0,VALID,62.7255,VALID,855.017,VALID,26.7007,VALID,36,VALID,1.71992,
2009-10-13, 10:33:05,VALID,919.469,VALID,0,VALID,62.7712,VALID,769.601,VALID,26.6421,VALID,10,VALID,0.333594,
2009-10-13, 10:34:05,VALID,919.441,VALID,0,VALID,63.9605,VALID,924.639,VALID,26.601,VALID,27,VALID,2.03789,